Location: Peterborough
(44.3091°N, 78.3197°W)
Time: 07:24:41
(UTC-04:00)

A-11 Canister half - Pass Details

Date: 30 March 2023
Orbit: 1513 x 1686 km, 47.2° (Epoch: 04 June)

Event Time Altitude Azimuth Distance (km) Brightness Sun altitude
Rises 01:37:02 0° 285° (WNW) 4,876 11.7 -41.8°
Reaches altitude 10° 01:40:09 10° 287° (WNW) 3,907 11.2 -41.8°
Enters shadow 01:44:55 34° 289° (WNW) 2,525 10.0 -41.6°
Exits shadow 01:59:18 15° 106° (ESE) 3,572 10.8 -41.1°
Drops below altitude 10° 02:00:31 10° 107° (ESE) 3,945 11.1 -41.1°
Sets 02:03:41 0° 108° (ESE) 4,926 11.6 -40.9°
